FW2402 Weather Reports


time (UTC)temp
C
wind
direction
speed
KPH
gust
KPH
rain 1hr
cm
rain 24hr
cm
rain mn
cm
humidity
%
barometer
mb
20260505224547 28 65 4.8 12.9 0.00 0.00 0.00 46 1013.5
20260505224020 28 98 4.8 12.9 0.00 0.00 0.00 46 1013.5
20260505223522 29 115 6.4 16.1 0.00 0.00 0.00 45 1013.5
20260505223039 29 67 6.4 16.1 0.00 0.00 0.00 45 1013.5
20260505222518 29 90 8.0 16.1 0.00 0.00 0.00 45 1013.5
20260505222017 30 57 3.2 9.7 0.00 0.00 0.00 44 1013.5
20260505221544 30 85 3.2 12.9 0.00 0.00 0.00 44 1013.6
20260505221020 29 107 6.4 12.9 0.00 0.00 0.00 45 1013.6
20260505220516 29 108 8.0 12.9 0.00 0.00 0.00 43 1013.6
20260505220035 29 85 4.8 11.3 0.00 0.00 0.00 46 1013.6
20260505215521 28 32 6.4 11.3 0.00 0.00 0.00 45 1013.6
20260505215017 28 38 4.8 11.3 0.00 0.00 0.00 45 1013.6
20260505214544 28 51 3.2 14.5 0.00 0.00 0.00 47 1013.6
20260505214022 28 81 4.8 14.5 0.00 0.00 0.00 46 1013.7
20260505213520 28 71 6.4 14.5 0.00 0.00 0.00 46 1013.6
20260505213037 28 35 8.0 14.5 0.00 0.00 0.00 45 1013.7
20260505212521 28 49 4.8 14.5 0.00 0.00 0.00 46 1013.6
20260505212020 28 69 6.4 16.1 0.00 0.00 0.00 45 1013.6
20260505211557 29 74 6.4 16.1 0.00 0.00 0.00 44 1013.6
20260505211016 29 46 4.8 16.1 0.00 0.00 0.00 44 1013.5
20260505210516 30 72 8.0 16.1 0.00 0.00 0.00 42 1013.4
20260505210041 31 84 4.8 11.3 0.00 0.00 0.00 38 1013.4
20260505205526 31 88 3.2 9.7 0.00 0.00 0.00 40 1013.4
20260505205024 30 250 1.6 8.0 0.00 0.00 0.00 43 1013.4
20260505204554 30 145 0.0 12.9 0.00 0.00 0.00 40 1013.5
20260505204024 30 108 3.2 16.1 0.00 0.00 0.00 41 1013.5
20260505203520 30 87 6.4 16.1 0.00 0.00 0.00 41 1013.6
20260505203041 31 128 1.6 12.9 0.00 0.00 0.00 41 1013.5
20260505202521 31 91 4.8 14.5 0.00 0.00 0.00 41 1013.5
20260505202024 30 144 6.4 17.7 0.00 0.00 0.00 42 1013.7
20260505201541 30 57 6.4 17.7 0.00 0.00 0.00 43 1013.7
20260505201020 30 89 4.8 17.7 0.00 0.00 0.00 44 1013.7
20260505200527 30 112 9.7 16.1 0.00 0.00 0.00 43 1013.8
20260505200038 30 0 3.2 14.5 0.00 0.00 0.00 42 1013.9
20260505195516 30 52 6.4 14.5 0.00 0.00 0.00 42 1013.9
20260505195017 29 149 4.8 14.5 0.00 0.00 0.00 44 1013.9
20260505194536 29 96 8.0 16.1 0.00 0.00 0.00 44 1014.0
20260505194021 29 82 6.4 16.1 0.00 0.00 0.00 45 1014.1
20260505193516 28 83 3.2 16.1 0.00 0.00 0.00 45 1014.2
20260505193036 29 263 0.0 16.1 0.00 0.00 0.00 43 1014.1
20260505192518 30 61 8.0 16.1 0.00 0.00 0.00 42 1014.3
20260505192017 30 49 4.8 17.7 0.00 0.00 0.00 40 1014.3
20260505191535 30 112 9.7 17.7 0.00 0.00 0.00 42 1014.4
20260505191016 30 107 1.6 14.5 0.00 0.00 0.00 42 1014.3
20260505190516 30 171 8.0 14.5 0.00 0.00 0.00 40 1014.4
20260505190033 30 84 0.0 14.5 0.00 0.00 0.00 45 1014.5
20260505185516 30 281 3.2 16.1 0.00 0.00 0.00 43 1014.6
20260505185016 30 64 6.4 16.1 0.00 0.00 0.00 44 1014.6
20260505184541 30 11 8.0 16.1 0.00 0.00 0.00 44 1014.6
20260505184016 30 104 6.4 14.5 0.00 0.00 0.00 43 1014.6
20260505183521 30 180 4.8 16.1 0.00 0.00 0.00 44 1014.7
20260505183036 30 115 3.2 16.1 0.00 0.00 0.00 46 1014.6
20260505182516 30 119 3.2 12.9 0.00 0.00 0.00 45 1014.7
20260505182022 30 153 3.2 12.9 0.00 0.00 0.00 43 1014.8
20260505181547 30 121 8.0 12.9 0.00 0.00 0.00 46 1015.0
20260505181016 29 85 3.2 12.9 0.00 0.00 0.00 46 1015.0
20260505180515 30 107 3.2 14.5 0.00 0.00 0.00 44 1014.9
20260505180036 29 109 4.8 14.5 0.00 0.00 0.00 49 1015.0
20260505175516 28 67 3.2 12.9 0.00 0.00 0.00 50 1015.2
20260505175017 27 120 6.4 12.9 0.00 0.00 0.00 51 1015.1
20260505174540 27 28 3.2 12.9 0.00 0.00 0.00 53 1015.3
20260505174016 27 24 3.2 16.1 0.00 0.00 0.00 51 1015.2
20260505173517 27 78 6.4 16.1 0.00 0.00 0.00 51 1015.4
20260505173031 27 25 6.4 14.5 0.00 0.00 0.00 52 1015.4
20260505172519 27 0 3.2 19.3 0.00 0.00 0.00 53 1015.3
20260505172019 27 57 8.0 19.3 0.00 0.00 0.00 53 1015.4
20260505171541 27 61 4.8 16.1 0.00 0.00 0.00 53 1015.4
20260505171017 27 65 4.8 17.7 0.00 0.00 0.00 53 1015.5
20260505170516 27 63 9.7 19.3 0.00 0.00 0.00 53 1015.6
20260505170036 27 55 9.7 19.3 0.00 0.00 0.00 52 1015.5
20260505165517 28 83 9.7 20.9 0.00 0.00 0.00 52 1015.4
20260505165023 28 42 11.3 20.9 0.00 0.00 0.00 51 1015.5
20260505164535 28 34 8.0 20.9 0.00 0.00 0.00 50 1015.6
20260505164021 28 50 11.3 19.3 0.00 0.00 0.00 50 1015.6
20260505163524 28 114 9.7 19.3 0.00 0.00 0.00 52 1015.7
20260505163046 28 85 8.0 19.3 0.00 0.00 0.00 51 1015.9
20260505162520 28 106 9.7 19.3 0.00 0.00 0.00 50 1015.7
20260505162020 28 60 6.4 19.3 0.00 0.00 0.00 52 1015.8
20260505161538 28 81 9.7 19.3 0.00 0.00 0.00 51 1015.9
20260505161021 27 60 4.8 17.7 0.00 0.00 0.00 54 1015.9
20260505160521 28 78 8.0 17.7 0.00 0.00 0.00 51 1015.9
20260505153042 27 120 9.7 17.7 0.00 0.00 0.00 56 1015.9
20260505152517 26 94 9.7 17.7 0.00 0.00 0.00 57 1015.9
20260505152019 27 67 8.0 16.1 0.00 0.00 0.00 56 1015.8
20260505151535 27 103 8.0 22.5 0.00 0.00 0.00 59 1015.8
20260505151022 26 89 12.9 22.5 0.00 0.00 0.00 59 1015.7
20260505150522 27 107 8.0 14.5 0.00 0.00 0.00 60 1015.7
20260505140520 25 111 12.9 20.9 0.00 0.00 0.00 69 1015.4
20260505125016 21 92 8.0 14.5 0.00 0.00 0.00 80 1015.3
20260505124537 21 78 6.4 12.9 0.00 0.00 0.00 82 1015.2
20260505124016 21 89 3.2 11.3 0.00 0.00 0.00 83 1015.3
20260505123516 21 78 4.8 9.7 0.00 0.00 0.00 84 1015.1
20260505123048 20 58 4.8 9.7 0.00 0.00 0.00 84 1015.1
20260505122518 20 55 3.2 9.7 0.00 0.00 0.00 85 1015.2
20260505122018 20 73 3.2 9.7 0.00 0.00 0.00 86 1015.3
20260505121536 19 42 4.8 9.7 0.00 0.00 0.00 88 1015.2
20260505121017 19 100 1.6 6.4 0.00 0.00 0.00 89 1015.3
20260505120516 18 81 3.2 6.4 0.00 0.00 0.00 92 1015.3
20260505120046 18 80 0.0 3.2 0.00 0.00 0.00 93 1015.3
20260505115516 17 0 0.0 0.0 0.00 0.00 0.00 94 1015.2
20260505115016 16 0 0.0 0.0 0.00 0.00 0.00 95 1015.3
20260505114538 16 0 0.0 0.0 0.00 0.00 0.00 95 1015.1
20260505114017 16 0 0.0 0.0 0.00 0.00 0.00 95 1015.0
20260505113516 15 0 0.0 0.0 0.00 0.00 0.00 95 1015.0
20260505113036 15 0 0.0 0.0 0.00 0.00 0.00 95 1015.0
20260505112519 15 0 0.0 0.0 0.00 0.00 0.00 95 1015.0
20260505112016 15 0 0.0 0.0 0.00 0.00 0.00 94 1015.0
20260505111538 15 0 0.0 0.0 0.00 0.00 0.00 94 1014.8
20260505111016 15 0 0.0 0.0 0.00 0.00 0.00 94 1014.6
20260505110516 15 0 0.0 0.0 0.00 0.00 0.00 95 1014.5
20260505102016 14 0 0.0 0.0 0.00 0.00 0.00 94 1014.1
20260505101535 14 0 0.0 0.0 0.00 0.00 0.00 94 1014.1
20260505101016 14 0 0.0 0.0 0.00 0.00 0.00 94 1014.1
20260505100516 14 0 0.0 0.0 0.00 0.00 0.00 94 1014.1
20260505100036 14 0 0.0 0.0 0.00 0.00 0.00 94 1014.0
20260505095522 14 0 0.0 0.0 0.00 0.00 0.00 94 1014.0
20260505095017 14 0 0.0 1.6 0.00 0.00 0.00 94 1014.0
20260505094539 14 0 0.0 1.6 0.00 0.00 0.00 94 1014.0
20260505094016 14 0 0.0 0.0 0.00 0.00 0.00 93 1014.1
20260505093516 14 0 0.0 0.0 0.00 0.00 0.00 93 1014.2
20260505093037 14 0 0.0 0.0 0.00 0.00 0.00 93 1014.1
20260505092515 14 0 0.0 0.0 0.00 0.00 0.00 93 1014.0
20260505092016 14 0 0.0 0.0 0.00 0.00 0.00 93 1013.9
20260505091535 14 0 0.0 0.0 0.00 0.00 0.00 93 1013.9
20260505091016 14 0 0.0 0.0 0.00 0.00 0.00 93 1013.9
20260505090516 14 0 0.0 0.0 0.00 0.00 0.00 93 1013.8
20260505090037 14 0 0.0 0.0 0.00 0.00 0.00 93 1013.7
20260505085516 14 0 0.0 0.0 0.00 0.00 0.00 92 1013.7
20260505085016 14 0 0.0 0.0 0.00 0.00 0.00 92 1013.7
20260505084537 15 0 0.0 1.6 0.00 0.00 0.00 93 1013.7
20260505084015 14 0 0.0 3.2 0.00 0.00 0.00 92 1013.7
20260505083519 15 0 0.0 4.8 0.00 0.00 0.00 92 1013.8
20260505083039 15 68 1.6 4.8 0.00 0.00 0.00 93 1013.5
20260505082517 15 68 0.0 3.2 0.00 0.00 0.00 94 1013.6
20260505082016 13 0 0.0 1.6 0.00 0.00 0.00 92 1013.7
20260505081537 14 0 0.0 3.2 0.00 0.00 0.00 92 1013.7
20260505081024 14 0 0.0 3.2 0.00 0.00 0.00 92 1013.8
20260505080520 14 0 0.0 0.0 0.00 0.00 0.00 92 1013.6
20260505080038 15 0 0.0 0.0 0.00 0.00 0.00 93 1013.5
20260505075516 15 0 0.0 0.0 0.00 0.00 0.00 93 1013.4
20260505075016 14 0 0.0 0.0 0.00 0.00 0.00 93 1013.6
20260505074536 14 0 0.0 0.0 0.00 0.00 0.00 93 1013.8
20260505074016 14 0 0.0 0.0 0.00 0.00 0.00 93 1013.7
20260505073515 14 0 0.0 0.0 0.00 0.00 0.00 92 1013.8
20260505073035 14 0 0.0 0.0 0.00 0.00 0.00 92 1013.9
20260505072521 14 0 0.0 0.0 0.00 0.00 0.00 92 1013.8
20260505072020 15 0 0.0 1.6 0.00 0.00 0.00 92 1013.9
20260505071540 15 0 0.0 1.6 0.00 0.00 0.00 92 1013.9
20260505071020 14 0 0.0 0.0 0.00 0.00 0.00 92 1014.1
20260505070524 14 0 0.0 0.0 0.00 0.00 0.00 91 1014.2
20260505070038 14 0 0.0 0.0 0.00 0.00 0.00 91 1014.1
20260505065520 14 0 0.0 0.0 0.00 0.00 0.00 91 1014.1
20260505065021 14 0 0.0 0.0 0.00 0.00 0.00 92 1014.1
20260505064549 14 0 0.0 0.0 0.00 0.00 0.00 91 1014.0
20260505064020 15 0 0.0 1.6 0.00 0.00 0.00 91 1014.0
20260505063521 15 0 0.0 1.6 0.00 0.00 0.00 91 1014.1
20260505063041 15 0 0.0 0.0 0.00 0.00 0.00 91 1014.2
20260505062518 15 0 0.0 0.0 0.00 0.00 0.00 91 1014.4
20260505062021 15 0 0.0 0.0 0.00 0.00 0.00 91 1014.5
20260505061541 15 0 0.0 0.0 0.00 0.00 0.00 91 1014.5
20260505061020 15 0 0.0 0.0 0.00 0.00 0.00 90 1014.5
20260505060520 15 0 0.0 0.0 0.00 0.00 0.00 90 1014.4
20260505060044 15 0 0.0 0.0 0.00 0.00 0.00 90 1014.5
20260505055521 15 0 0.0 0.0 0.00 0.00 0.00 90 1014.6
20260505055022 15 0 0.0 0.0 0.00 0.00 0.00 89 1014.7
20260505054548 15 0 0.0 0.0 0.00 0.00 0.00 90 1014.8
20260505054017 15 0 0.0 0.0 0.00 0.00 0.00 89 1014.9
20260505053523 15 0 0.0 0.0 0.00 0.00 0.00 89 1014.9
20260505053035 15 0 0.0 0.0 0.00 0.00 0.00 88 1015.0
20260505052521 15 0 0.0 0.0 0.00 0.00 0.00 88 1015.0
20260505052021 16 0 0.0 0.0 0.00 0.00 0.00 87 1015.0
20260505051542 16 0 0.0 0.0 0.00 0.00 0.00 87 1015.1
20260505051021 16 0 0.0 0.0 0.00 0.00 0.00 87 1015.2
20260505050520 16 0 0.0 0.0 0.00 0.00 0.00 86 1015.2
20260505041537 17 0 0.0 0.0 0.00 0.00 0.00 82 1015.6
20260505041020 17 0 0.0 0.0 0.00 0.00 0.00 80 1015.6
20260505040520 18 0 0.0 1.6 0.00 0.00 0.00 79 1015.5
20260505040050 18 0 0.0 3.2 0.00 0.00 0.00 78 1015.6
20260505035521 19 0 0.0 3.2 0.00 0.00 0.00 76 1015.6
20260505035020 19 68 1.6 3.2 0.00 0.00 0.00 75 1015.4
20260505034552 20 0 0.0 4.8 0.00 0.00 0.00 74 1015.4
20260505034018 20 0 1.6 6.4 0.00 0.00 0.00 74 1015.5
20260505033518 20 75 1.6 6.4 0.00 0.00 0.00 73 1015.5
20260505033043 20 83 1.6 6.4 0.00 0.00 0.00 73 1015.5
20260505032517 20 71 3.2 6.4 0.00 0.00 0.00 73 1015.5
20260505032018 20 69 3.2 6.4 0.00 0.00 0.00 72 1015.5
20260505031538 20 75 3.2 9.7 0.00 0.00 0.00 72 1015.5
20260505031017 20 99 3.2 11.3 0.00 0.00 0.00 72 1015.6
20260505030517 20 43 6.4 11.3 0.00 0.00 0.00 71 1015.6
20260505030046 20 81 4.8 11.3 0.00 0.00 0.00 71 1015.7
20260505025521 21 61 6.4 11.3 0.00 0.00 0.00 71 1015.6
20260505025017 21 98 6.4 11.3 0.00 0.00 0.00 71 1015.6
20260505024536 21 86 4.8 14.5 0.00 0.00 0.00 71 1015.6
20260505024021 21 78 4.8 14.5 0.00 0.00 0.00 71 1015.4
20260505023521 21 82 6.4 16.1 0.00 0.00 0.00 71 1015.4
20260505023046 21 78 6.4 16.1 0.00 0.00 0.00 70 1015.4
20260505022521 21 138 8.0 14.5 0.00 0.00 0.00 70 1015.4
20260505022021 21 92 4.8 14.5 0.00 0.00 0.00 70 1015.4
20260505021541 21 121 6.4 14.5 0.00 0.00 0.00 70 1015.4
20260505021024 21 74 6.4 12.9 0.00 0.00 0.00 70 1015.3
20260505020521 21 80 6.4 12.9 0.00 0.00 0.00 70 1015.3
20260505020052 21 80 6.4 12.9 0.00 0.00 0.00 70 1015.2
20260505015522 21 82 4.8 11.3 0.00 0.00 0.00 69 1015.2
20260505015018 21 86 4.8 12.9 0.00 0.00 0.00 69 1015.1
20260505014542 21 68 6.4 12.9 0.00 0.00 0.00 69 1015.1
20260505014021 21 92 4.8 12.9 0.00 0.00 0.00 69 1015.0
20260505013525 21 92 4.8 14.5 0.00 0.00 0.00 68 1014.9
20260505013041 21 94 8.0 14.5 0.00 0.00 0.00 68 1014.9
20260505012522 21 98 6.4 12.9 0.00 0.00 0.00 68 1014.9
20260505012021 21 86 4.8 11.3 0.00 0.00 0.00 68 1014.7
20260505011536 21 65 4.8 9.7 0.00 0.00 0.00 67 1014.6
20260505011021 21 85 4.8 8.0 0.00 0.00 0.00 67 1014.6
20260505010521 22 82 3.2 9.7 0.00 0.00 0.00 67 1014.5
20260505010104 22 93 4.8 9.7 0.00 0.00 0.00 67 1014.4
20260505005521 22 74 4.8 12.9 0.00 0.00 0.00 66 1014.3
20260505005021 22 98 4.8 12.9 0.00 0.00 0.00 66 1014.3
20260505004556 22 107 4.8 12.9 0.00 0.00 0.00 65 1014.1
20260505004021 22 109 6.4 16.1 0.00 0.00 0.00 65 1014.2
20260505003525 22 83 6.4 16.1 0.00 0.00 0.00 65 1014.1
20260505003042 22 86 6.4 16.1 0.00 0.00 0.00 64 1014.2
20260505002521 22 105 4.8 9.7 0.00 0.00 0.00 63 1014.2
20260505002020 23 80 4.8 11.3 0.00 0.00 0.00 63 1014.2
20260505001541 23 79 4.8 11.3 0.00 0.00 0.00 62 1014.2
20260505001017 23 102 4.8 12.9 0.00 0.00 0.00 62 1014.2
20260505000519 23 90 4.8 12.9 0.00 0.00 0.00 61 1013.9
20260505000038 23 121 4.8 12.9 0.00 0.00 0.00 61 1013.9
20260504235517 23 123 4.8 16.1 0.00 0.00 0.00 61 1013.9
20260504235021 23 88 6.4 17.7 0.00 0.00 0.00 60 1013.8
20260504234537 23 84 8.0 19.3 0.00 0.00 0.00 59 1013.7
20260504234021 24 69 8.0 20.9 0.00 0.00 0.00 59 1013.8
20260504233521 24 82 12.9 20.9 0.00 0.00 0.00 58 1013.8
20260504233035 24 78 11.3 19.3 0.00 0.00 0.00 58 1013.7
20260504232521 25 104 9.7 20.9 0.00 0.00 0.00 56 1013.6
20260504232020 25 104 9.7 22.5 0.00 0.00 0.00 56 1013.6
20260504231558 25 116 14.5 22.5 0.00 0.00 0.00 54 1013.5
20260504231020 25 94 9.7 20.9 0.00 0.00 0.00 53 1013.6
20260504230524 25 87 11.3 22.5 0.00 0.00 0.00 53 1013.5
20260504230039 26 67 11.3 24.1 0.00 0.00 0.00 53 1013.6
20260504225521 26 58 12.9 24.1 0.00 0.00 0.00 53 1013.5
20260504225021 26 80 12.9 24.1 0.00 0.00 0.00 52 1013.6